Home   Weather   Montego Bay   Past weeks

Flag for Jamaica Past Weather in Montego Bay, Jamaica — Yesterday and Last 2 Weeks

Now
88 °F

Passing clouds.


Feels Like: 102 °F
Forecast: N/A
Wind: 8 mph from East

Location: Montego Bay / Sangster

Current Time: Sep 29, 2016 at 5:14:35 PM

Latest Report: Sep 29, 2016 at 5:00 PM


Visibility: N/A

Pressure: 29.92 "Hg

Humidity: 75%

Dew Point: 79 °F

Location of Montego BayLocation

Past Weather in Montego Bay — Graph

°F

Montego Bay Temperature Yesterday

Maximum temperature yesterday: 90 °F (at 11:00 AM)
Minimum temperature yesterday: 79 °F (at 1:00 AM)
Average temperature yesterday: 84 °F

High & Low Weather Summary for the Past Weeks

 TemperatureHumidityPressure
High90 °F (Sep 27, 1:00 PM)100% (Sep 22, 5:00 AM)30.01 "Hg (Sep 22, 5:00 AM)
Low75 °F (Sep 21, 4:00 AM)66% (Sep 25, 6:00 PM)29.83 "Hg (Sep 19, 4:00 PM)
Average83 °F84%29.92 "Hg
* Reported Sep 14 4:00 PM — Sep 29 4:00 PM, Montego Bay, Weather by CustomWeather, © 2016

Note: Actual official high and low records may vary slightly from our data, if they occured in-between our weather recording intervals... More about our weather records

Advertising

Montego Bay Weather History for the Previous 24 Hours

Scroll right to see more
 ConditionsComfort  
Time TempWeatherWind HumidityBarometerVisibility
4:00 PM
Thu, Sep 29
88 °FScattered clouds.12 mph79%29.92 "HgN/A
3:00 PM90 °FScattered clouds.12 mph75%29.92 "HgN/A
2:00 PM90 °FScattered clouds.13 mph75%29.92 "HgN/A
1:00 PM90 °FScattered clouds.12 mph75%29.95 "HgN/A
12:00 PM88 °FPassing clouds.9 mph84%29.98 "HgN/A
11:00 AM88 °FPassing clouds.9 mph84%29.98 "HgN/A
10:00 AM88 °FPassing clouds.6 mph84%30.01 "HgN/A
9:00 AM86 °FPassing clouds.7 mph89%30.01 "HgN/A
8:00 AM84 °FPassing clouds.2 mph89%29.98 "HgN/A
7:00 AM82 °FPassing clouds.3 mph89%29.98 "HgN/A
6:00 AM81 °FPassing clouds.2 mph89%29.95 "HgN/A
5:00 AM81 °FPassing clouds.2 mph89%29.95 "HgN/A
4:00 AM81 °FPassing clouds.2 mph89%29.95 "HgN/A
3:00 AM81 °FPassing clouds.2 mph89%29.95 "HgN/A
2:00 AM81 °FPassing clouds.6 mph89%29.95 "HgN/A
1:00 AM81 °FPassing clouds.7 mph89%29.98 "HgN/A
12:00 AM82 °FPassing clouds.3 mph89%29.98 "HgN/A
11:00 PM
Wed, Sep 28
81 °FPassing clouds.3 mph89%29.98 "HgN/A
10:00 PM82 °FPassing clouds.3 mph89%30.01 "HgN/A
9:00 PM84 °FPassing clouds.3 mph84%29.98 "HgN/A
8:00 PM84 °FThundershowers. Passing clouds.6 mph84%29.98 "HgN/A
7:00 PM84 °FThundershowers. Passing clouds.5 mph84%29.95 "HgN/A
6:00 PM84 °FScattered clouds.5 mph84%29.95 "HgN/A
5:00 PM84 °FScattered clouds.12 mph84%29.92 "HgN/A
Weather by CustomWeather, © 2016

See weather overviewHow to use our weather pages